Orbital Elements at Epoch 2459200.5 (2020-Dec-17.0) TDB
Reference: JPL 21 (heliocentric ecliptic J2000)
Element | Value | Uncertainty (1-sigma) | Units |
e | .2683879144744899 | 3.5393e-08 | |
a | 2.604752727007394 | 1.051e-08 | au |
q | 1.90566857488414 | 8.9012e-08 | au |
i | 4.05040285771598 | 3.8248e-06 | deg |
node | 264.8610745382267 | 9.5854e-05 | deg |
peri | 24.35866279153427 | 9.6475e-05 | deg |
M | 146.7429501292725 | 1.2952e-05 | deg |
tp | 2458574.602921958505 (2019-Apr-01.10292196) | 5.377e-05 | TDB |
period | 1535.494195097215 4.20 | 9.2932e-06 2.544e-08 | d yr |
n | .2344522051268371 | 1.419e-09 | deg/d |
Q | 3.303836879130649 | 1.333e-08 | au |
|
| | Orbit Determination Parameters
Additional Information
|